User: anonymous   Login
Location: Cronhütte
(48.9135°N, 9.6869°E)
Time: 12:04:16
(UTC+00:00)
Language:

Cosmos 1315 Rocket - Orbit

View from above orbital plane
View from above orbital plane
View from above satellite
View from above satellite

Ground track
Ground track

The orbit data is extracted from the following two-line orbital elements,

1 12904U 81103B   24203.93302621  .00006300  00000-0  35598-3 0  9998
2 12904  81.1612 188.0124 0021493 136.7195 223.5726 15.12763851882882
Epoch (UTC): 21 July 2024 22:23:33
Eccentricity: 0.0021493
inclination: 81.1612°
perigee height: 513 km
apogee height: 542 km
right ascension of ascending node: 188.0124°
argument of perigee: 136.7195°
revolutions per day: 15.12763851
mean anomaly at epoch: 223.5726°
orbit number at epoch: 88288

The dashed part of the orbit path shows where the satellite is in the earth's shadow,  

DLR